Location: *
(43.0167°S, 179.9000°E)
Time: 19:40:00
(UTC+00:00)

BREEZE-M R/B - Pass Details

Date: 12 August 2024
Orbit: 311 x 4101 km, 49.7° (Epoch: 19 September)

Event Time Altitude Azimuth Distance (km) Brightness Sun altitude
Exits shadow 17:51:54 13° 243° (WSW) 3,640 6.4 -12.4°
Maximum altitude 18:00:01 66° 162° (SSE) 1,000 4.1 -10.9°
Drops below altitude 10° 18:04:23 10° 78° (ENE) 1,976 7.3 -10.1°
Sets 18:06:03 0° 75° (ENE) 2,646 8.6 -9.8°
